Dewpoint
2 2 1 2 2 2 0 -3 1 2 2 2 -1 -4 -8 -9 -11 -17 -19 -15 -10 -6 -5 -6 -6 -7 -7
-2 -1 -2 -1 -0 -0 -5 -7 1 2 2 1 -5 -7 -11 -16 -19 -21 -22 -23 -23 -23 -23 -22 -21 -21 -22
-10 -8 -12 -13 -12 -13 -16 -11 -2 1 2 -2 -11 -17 -20 -21 -22 -21 -20 -19 -18 -18 -17 -17 -17 -16 -16
-15 -17 -18 -19 -21 -21 -21 -20 -8 -3 -3 -9 -16 -23 -23 -21 -20 -19 -18 -17 -16 -16 -15 -15 -16 -16 -16
-15 -17 -18 -20 -22 -22 -23 -20 -18 -14 -15 -19 -22 -21 -20 -18 -18 -17 -16 -16 -16 -16 -16 -16 -15 -16 -16
-14 -15 -17 -19 -21 -22 -22 -21 -16 -22 -23 -21 -20 -19 -18 -18 -17 -17 -16 -16 -16 -16 -15 -15 -16 -16 -17
-12 -13 -15 -17 -20 -21 -22 -21 -19 -18 -19 -20 -20 -20 -19 -18 -17 -16 -15 -16 -16 -15 -15 -15 -16 -16 -17
-11 -12 -13 -15 -17 -19 -20 -19 -19 -19 -19 -19 -20 -20 -20 -18 -17 -16 -15 -16 -16 -15 -15 -15 -16 -17 -18
-7 -10 -11 -12 -14 -16 -19 -19 -18 -18 -19 -19 -20 -20 -20 -18 -16 -15 -15 -16 -16 -15 -15 -15 -16 -17 -18
-4 -7 -9 -9 -11 -14 -17 -18 -17 -16 -19 -20 -21 -20 -19 -18 -17 -15 -16 -16 -15 -16 -16 -16 -17 -18 -18
-3 -5 -7 -8 -10 -12 -15 -17 -17 -17 -17 -18 -19 -18 -16 -16 -16 -16 -16 -17 -16 -16 -16 -16 -17 -18 -19
-3 -4 -5 -7 -8 -10 -12 -14 -16 -16 -17 -17 -16 -17 -18 -17 -16 -16 -15 -16 -17 -16 -16 -16 -17 -18 -18
-2 -3 -4 -5 -6 -7 -9 -11 -13 -14 -15 -15 -15 -15 -15 -16 -16 -15 -15 -16 -16 -15 -16 -17 -17 -17 -19
-2 -2 -3 -4 -5 -6 -7 -7 -5 -11 -12 -13 -13 -13 -13 -14 -14 -15 -14 -16 -15 -14 -15 -15 -16 -18 -20
-2 -2 -2 -2 -3 -5 -5 -4 -4 -6 -9 -11 -12 -11 -11 -12 -14 -14 -15 -11 -4 -4 -10 -13 -17 -19 -21
-2 -2 -3 -3 -3 -3 -4 -4 -4 -5 -7 -5 -9 -9 -10 -13 -13 -11 -6 -4 -4 -8 -10 -15 -18 -20 -20
-2 -3 -3 -3 -4 -4 -4 -4 -4 -5 -5 -6 -6 -6 -6 -7 -6 -5 -5 -5 -5 -7 -8 -16 -19 -20 -14
Wind_Speed
19 22 20 18 19 18 17 15 15 12 12 12 13 13 10 8 6 4 2 2 4 6 6 8 9 10 11
21 22 21 19 19 19 20 17 15 13 12 13 12 12 12 9 6 5 4 4 3 3 4 6 7 7 8
23 23 22 21 20 21 19 19 17 15 14 13 13 11 10 10 8 6 4 4 4 4 4 5 6 8 10
24 23 23 21 21 20 20 18 18 18 17 15 13 11 10 9 8 8 7 6 7 7 8 9 10 10 11
25 24 23 21 20 20 20 19 19 18 18 17 14 12 11 10 9 9 9 8 8 9 9 10 10 11 12
25 25 23 22 21 20 20 19 15 15 14 14 14 14 13 13 12 11 11 10 10 10 11 11 10 12 13
27 26 24 23 21 21 19 18 17 20 17 17 15 15 16 16 15 15 13 12 11 12 13 13 12 14 14
27 25 25 24 22 21 20 19 20 20 18 18 18 16 16 16 17 17 15 14 13 13 13 13 14 16 17
27 27 26 25 24 23 22 20 20 19 18 18 20 18 18 18 18 18 16 16 15 13 14 15 17 17 18
26 27 28 27 25 23 21 22 20 18 20 19 21 17 10 16 19 19 17 16 15 16 16 16 16 18 20
26 26 27 28 26 23 21 22 23 22 20 15 15 13 13 13 11 11 13 16 17 18 17 17 18 19 19
26 27 28 28 26 23 22 21 21 20 22 20 21 20 19 19 18 16 15 16 16 18 19 19 18 17 22
28 27 27 26 24 24 24 24 22 23 23 22 22 20 20 20 20 18 16 17 17 19 18 15 19 20 23
26 26 25 24 24 25 26 25 26 25 24 23 22 22 22 21 22 20 19 13 13 16 21 22 19 20 23
25 26 26 24 25 26 26 29 30 28 28 25 22 23 22 21 21 17 16 17 19 19 20 25 19 19 22
21 23 24 24 25 27 29 29 31 30 28 26 22 20 19 17 17 15 19 22 22 19 19 25 23 15 19
18 19 19 21 23 26 28 28 29 29 26 22 24 24 22 20 21 19 21 21 21 17 18 22 24 16 17
Wind_Direction
288 295 303 305 307 310 311 309 305 308 310 312 309 313 314 313 311 308 282 234 234 233 232 234 238 243 247
292 297 301 301 302 303 306 303 301 301 301 308 306 303 304 302 298 286 274 262 249 247 248 249 252 258 260
286 290 298 299 300 301 299 298 295 294 296 298 299 296 286 285 288 286 281 275 276 271 269 268 265 265 266
284 287 290 295 298 296 295 293 291 292 291 290 289 285 280 275 272 272 277 283 287 284 282 280 281 285 284
279 284 287 291 293 291 292 289 289 284 284 283 280 275 270 267 263 260 263 267 268 270 270 272 275 279 282
277 279 285 284 286 288 289 292 294 292 279 274 272 272 272 271 269 270 273 279 283 282 281 285 289 294 296
272 274 280 282 282 281 280 280 278 275 278 280 276 272 272 270 269 270 273 279 282 280 281 285 292 297 298
270 272 272 274 275 275 275 274 272 273 274 276 278 273 270 265 264 265 271 273 277 278 275 280 292 297 299
274 272 271 270 272 272 270 270 270 270 268 265 272 273 271 265 261 262 262 269 273 271 277 282 289 292 295
275 271 270 268 267 265 265 264 260 267 270 262 266 266 269 265 259 260 265 263 270 277 280 284 289 293 294
271 269 266 265 266 265 260 260 260 256 260 265 268 263 249 261 267 260 265 271 274 280 281 290 293 295 292
270 266 266 266 267 265 260 260 260 262 262 259 260 259 260 263 265 264 267 270 274 279 284 288 292 291 299
272 272 271 271 267 260 257 256 259 261 261 263 261 259 259 259 263 265 267 269 274 280 284 283 293 295 294
276 279 274 268 262 256 252 254 256 258 259 258 260 261 261 261 262 264 266 261 272 283 287 289 294 295 295
275 276 278 270 261 255 251 254 255 252 255 255 260 264 262 261 263 262 260 268 280 280 282 287 294 297 291
276 272 272 271 265 261 259 257 254 249 248 250 260 262 265 265 261 255 272 279 276 275 280 289 297 298 292
276 273 270 272 269 265 261 259 255 249 249 248 248 250 251 253 259 259 266 273 274 272 279 289 297 306 294
Height
1452 1450 1448 1446 1443 1442 1440 1439 1437 1436 1435 1433 1430 1429 1427 1426 1426 1425 1425 1425 1426 1426 1426 1426 1427 1428 1428
1448 1446 1444 1443 1441 1439 1437 1436 1435 1434 1433 1431 1430 1428 1426 1425 1424 1423 1423 1423 1423 1424 1425 1425 1425 1426 1426
1444 1442 1441 1439 1437 1435 1434 1432 1431 1431 1430 1429 1428 1427 1425 1424 1423 1422 1422 1422 1422 1422 1423 1424 1424 1424 1424
1438 1438 1437 1436 1434 1432 1430 1429 1428 1427 1426 1425 1424 1424 1424 1423 1422 1422 1422 1421 1421 1421 1421 1421 1421 1421 1420
1433 1432 1431 1431 1429 1428 1426 1426 1425 1424 1422 1422 1421 1420 1420 1420 1421 1420 1421 1420 1420 1420 1419 1419 1418 1418 1417
1430 1428 1427 1426 1425 1425 1423 1423 1422 1420 1420 1419 1418 1417 1417 1417 1417 1417 1417 1417 1417 1416 1415 1415 1414 1414 1414
1424 1424 1423 1422 1420 1419 1419 1418 1418 1417 1418 1416 1416 1415 1414 1414 1414 1414 1414 1414 1414 1414 1413 1413 1413 1412 1410
1418 1419 1418 1417 1416 1415 1414 1414 1413 1412 1414 1413 1412 1411 1411 1410 1410 1410 1411 1411 1410 1410 1410 1409 1408 1408 1407
1411 1411 1411 1411 1411 1410 1409 1409 1408 1408 1408 1407 1407 1408 1407 1406 1406 1406 1407 1406 1407 1407 1406 1406 1405 1404 1402
1404 1404 1404 1404 1404 1404 1405 1405 1405 1404 1403 1404 1403 1403 1402 1401 1401 1402 1402 1402 1402 1402 1402 1402 1401 1399 1398
1396 1396 1396 1396 1397 1398 1399 1399 1400 1400 1400 1400 1400 1400 1399 1398 1398 1398 1399 1399 1398 1397 1397 1397 1396 1394 1392
1388 1388 1389 1390 1391 1392 1392 1393 1394 1395 1396 1396 1395 1395 1395 1395 1395 1394 1394 1394 1394 1393 1392 1391 1390 1390 1388
1381 1381 1382 1384 1385 1386 1386 1386 1388 1389 1390 1390 1391 1391 1391 1389 1390 1390 1390 1389 1388 1387 1386 1385 1385 1385 1383
1375 1375 1375 1376 1377 1378 1379 1380 1381 1382 1383 1384 1385 1386 1386 1385 1385 1386 1385 1386 1384 1383 1383 1380 1381 1380 1376
1369 1368 1367 1369 1370 1371 1372 1373 1373 1375 1377 1378 1379 1380 1380 1380 1380 1381 1381 1380 1380 1379 1378 1376 1376 1374 1371
1362 1361 1360 1362 1364 1364 1365 1366 1367 1368 1370 1372 1374 1375 1375 1375 1376 1376 1376 1375 1375 1374 1373 1370 1369 1370 1365
1355 1355 1355 1356 1357 1357 1359 1360 1361 1362 1363 1366 1368 1370 1370 1370 1371 1371 1371 1370 1369 1368 1368 1366 1363 1363 1360